OneWeb SL0575

operational
NORAD ID: 56064 Int'l Des: 2023-043 Owner: ONEWEBN Country: UK Constellation: oneweb
LEOCIRCULARPOLARONEWEB_TYPE

关于 OneWeb SL0575

正在加载描述...

实时位置

正在加载3D地球...

即将过境

高度历史

Altitude vs Time

uPlot chart will show altitude changes over time

两行轨道根数

1 56064U 23043U 25258.04760057 .00000152 00000-0 36491-3 0 9998
2 56064 87.8978 283.6070 0002319 85.8390 274.3006 13.16595621122763
Epoch: Sep 15, 2025 • Age: 14 hours

当前状态

高度 1226.4 km
速度 7.24 km/s
星下点 -72.88°S, 112.39°W
发射日期 Mar 26, 2023
运行时间 2.4 years
类型 internet

技术详情

分类 Payload
质量 148.00 kg
干质量 140.00 kg
总质量 148.00 kg
长度 1.30 m
直径 1.00 m
跨度 5.00 m
形状 Trapezoid+2 pan
制造商 ONEWUS
平台类型 ARROW
阶段状态 In Orbit
所有者/国家 ONEWEBN/UK

大型星座

Loading constellations...